RH
3 3 2 2 2 2 1 1 1 1 1 1 1 1 1 1 1 1 1 2 2 2 2 2 2 2 2 2 2 2 2 2 2 2 2 2 2 2 2 2 2 2 2 2 2 2 2 2 2 2 2 3 3 4 4 4 4 5 5 6 6 6 6 6 7 7 7 7 7 6 6 6 6 6 6 6 6 6 5 5 5 5 5 5 5 5 5 5 5 5 5 5 5 5 5 6 6 6 6 6 6 6 6
2 2 2 2 1 1 1 1 1 1 1 1 1 1 1 1 1 2 2 2 2 2 2 2 2 2 2 2 2 2 2 2 2 2 2 2 2 2 2 2 2 2 2 2 2 2 2 2 2 3 3 4 4 5 5 6 6 7 7 7 7 8 8 8 8 8 8 8 8 8 8 7 7 7 7 7 7 6 6 6 6 6 6 6 6 6 6 6 6 6 6 7 7 7 7 7 7 8 8 8 8 8 8
2 1 1 1 1 1 0 0 1 1 1 1 1 1 2 2 2 2 2 2 2 2 2 2 3 3 2 2 2 2 2 2 2 2 2 2 2 2 2 2 2 2 2 2 2 2 3 3 4 4 5 5 6 6 7 8 8 8 8 8 8 8 8 8 8 8 8 8 8 8 8 8 8 8 8 8 8 8 8 8 8 8 8 8 8 8 8 8 8 9 9 10 10 10 10 10 10 10 10 10 11 11 11
1 1 0 0 0 1 1 1 1 1 1 1 2 2 2 2 2 2 2 3 3 3 3 3 3 3 3 3 2 2 2 2 2 2 2 2 2 2 2 2 2 2 2 2 3 3 4 4 5 6 6 7 7 8 8 9 10 10 10 10 10 10 10 10 10 10 10 9 9 9 9 9 9 9 8 8 8 9 9 9 10 10 10 10 10 10 11 11 12 12 12 12 12 13 13 13 13 13 13 13 14 14 14
0 0 0 1 1 1 1 1 1 2 2 2 2 2 2 3 3 3 3 3 3 3 3 3 3 3 3 3 3 2 2 2 2 2 2 2 2 2 2 2 2 3 3 3 4 4 5 6 7 8 8 8 8 10 10 10 10 10 10 10 10 10 10 10 10 10 10 10 10 10 10 10 10 10 10 10 10 10 10 11 11 12 12 12 12 13 13 13 14 14 14 14 14 14 14 14 14 14 14 14 14 14 14
0 1 1 1 1 1 2 2 2 2 2 2 2 3 3 3 3 3 3 3 3 3 3 3 3 3 3 3 3 3 2 2 2 2 2 2 2 3 3 3 3 4 4 5 5 6 7 8 8 9 10 10 10 10 11 11 11 11 10 10 10 10 10 10 10 10 10 10 10 10 10 10 10 11 11 11 11 12 12 12 13 13 14 14 14 14 14 14 14 14 14 14 14 14 14 14 14 13 13 13 13 12 12
1 1 1 1 2 2 2 2 2 2 3 3 3 3 3 3 3 3 3 3 3 3 3 3 3 3 3 3 3 3 3 2 2 2 3 3 3 3 4 4 4 5 6 6 7 8 8 10 10 10 11 11 11 12 11 11 11 11 11 11 10 10 10 10 10 10 10 11 11 11 11 11 12 12 12 12 12 13 13 14 14 14 14 14 14 14 14 14 14 14 14 14 14 13 13 13 12 12 12 12 11 11 11
1 1 2 2 2 2 2 3 3 3 3 3 3 3 3 3 3 3 3 3 3 3 3 3 3 3 3 3 3 3 3 3 3 3 3 3 4 4 4 5 6 6 7 8 8 10 10 11 11 12 12 12 12 12 12 12 11 11 11 11 11 11 11 11 11 11 11 11 11 12 12 12 12 13 13 13 14 14 14 14 14 14 14 14 14 14 14 14 14 14 13 13 13 12 12 12 11 11 11 10 10 10 10
2 2 2 2 3 3 3 3 3 3 3 3 3 3 3 4 4 4 4 4 4 4 4 4 4 3 3 3 3 3 3 3 3 4 4 4 5 5 6 6 7 8 8 9 10 11 12 12 12 12 12 12 12 12 12 12 11 11 11 11 11 11 11 11 11 11 12 12 12 12 13 13 13 14 14 14 14 14 14 14 14 14 14 14 14 14 14 13 13 13 12 12 12 11 11 11 10 10 10 10 10 10 9
2 3 3 3 3 3 3 3 3 3 3 3 4 4 4 4 4 4 4 4 4 4 4 4 4 4 3 3 3 3 3 4 4 4 5 5 6 6 7 8 8 9 10 10 11 12 12 12 12 12 12 12 12 12 12 11 11 11 11 11 11 11 11 11 12 12 12 12 13 13 14 14 14 14 14 14 14 14 14 14 14 14 14 14 14 13 13 13 12 12 12 11 11 10 10 10 10 10 10 10 9 9 9
3 3 4 4 4 4 4 4 4 4 4 4 4 4 4 4 4 4 4 4 4 4 4 4 4 4 4 4 4 4 4 4 5 5 6 6 7 8 8 10 10 11 11 12 12 12 13 12 12 12 12 12 12 11 11 11 11 11 11 11 11 11 12 12 12 12 13 13 14 14 14 14 14 15 15 14 14 14 14 14 14 14 13 13 13 13 12 12 12 11 11 10 10 10 10 10 10 10 10 10 9 9 8
4 4 4 4 4 4 4 4 4 4 4 4 4 4 4 4 4 4 4 4 4 4 4 4 4 4 4 4 4 5 5 6 6 6 7 8 8 10 10 11 12 12 12 13 13 13 12 12 12 12 12 11 11 11 11 11 11 11 11 11 12 12 12 12 12 13 13 14 14 14 14 14 14 15 14 14 14 14 14 13 13 13 13 12 12 12 12 11 11 10 10 10 10 10 10 10 10 10 10 9 9 8 8
4 4 4 4 4 4 4 4 4 4 4 4 5 5 5 5 4 4 4 4 4 4 5 5 5 5 5 5 6 6 6 7 7 8 8 9 10 11 12 12 13 13 13 13 13 12 12 12 12 12 11 11 11 11 11 11 11 11 11 12 12 12 12 13 13 14 14 14 14 14 15 14 14 14 14 14 14 13 13 13 13 12 12 12 12 11 11 10 10 10 10 10 10 10 10 10 10 9 9 9 8 8 8
4 4 4 4 4 4 4 4 5 5 5 5 5 5 5 5 5 5 5 5 5 5 5 5 6 6 6 6 6 7 7 8 8 9 10 10 11 12 13 13 13 13 13 13 12 12 12 12 12 12 11 11 11 11 11 11 11 12 12 12 12 13 13 13 14 14 14 14 14 14 14 14 14 14 14 13 13 13 12 12 12 12 12 11 11 10 10 10 10 10 10 10 10 10 10 9 9 9 8 8 9 9 10
4 4 4 4 5 5 5 5 5 5 6 6 5 5 5 5 5 5 5 5 6 6 6 6 6 6 7 7 7 8 8 8 10 10 11 12 12 13 13 13 13 13 13 12 12 12 12 12 12 11 11 11 11 11 11 11 12 12 12 13 13 13 14 14 14 14 14 14 14 14 14 14 14 13 13 13 13 12 12 12 12 11 11 10 10 10 10 10 10 10 10 9 9 9 8 8 8 9 9 10 10 11 12
5 5 5 5 5 5 5 6 6 6 6 6 6 5 5 5 5 6 6 6 6 6 7 7 7 7 8 8 8 8 10 10 10 11 12 13 13 13 13 13 13 13 12 12 12 12 12 12 12 11 11 11 11 11 12 12 12 12 13 13 14 14 14 14 14 14 14 14 14 14 14 13 13 13 13 12 12 12 12 11 11 10 10 10 10 10 10 9 9 9 8 8 8 8 9 10 10 10 11 12 14 15 16
5 5 5 5 5 6 6 6 6 6 6 6 6 6 6 6 6 6 6 7 7 7 8 8 8 8 8 8 10 10 10 11 12 12 13 13 13 13 13 13 12 12 12 12 12 12 12 12 12 11 11 11 12 12 12 12 12 13 13 14 14 14 14 14 14 14 14 14 14 14 13 13 13 12 12 12 12 11 11 11 10 10 10 10 9 9 8 8 8 8 8 8 9 10 10 12 13 14 16 18 20 22 24
5 6 6 6 6 6 6 6 6 6 6 6 6 6 6 6 6 7 7 7 8 8 8 8 8 9 10 10 10 11 12 12 12 13 13 13 13 13 13 12 12 12 12 12 12 12 12 12 12 11 12 12 12 12 12 13 13 13 14 14 14 14 14 14 14 14 14 14 13 13 13 12 12 12 12 12 11 11 10 10 10 10 9 8 8 8 8 8 8 9 10 10 12 13 15 17 18 21 23 24 26 28 30
6 6 6 6 6 6 6 6 6 6 6 6 6 6 7 7 7 8 8 8 8 8 8 9 10 10 10 10 11 12 12 13 13 13 13 13 13 13 13 12 12 12 12 12 12 12 12 12 12 12 12 12 12 13 13 13 13 14 14 14 14 14 15 14 14 14 14 13 13 12 12 12 12 12 11 11 10 10 10 10 8 8 8 8 8 8 8 10 10 11 13 14 16 19 21 23 25 27 29 31 33 34 35
6 6 6 6 6 6 6 6 6 6 7 7 7 7 8 8 8 8 8 8 8 9 9 10 10 10 11 11 12 12 13 13 13 13 13 13 13 13 12 12 12 12 12 12 12 12 12 12 12 12 12 13 13 13 13 13 14 14 14 14 14 15 15 14 14 14 13 13 12 12 12 12 11 11 11 10 10 10 9 8 8 8 8 8 9 10 10 12 14 16 18 20 22 24 27 29 31 33 34 36 36 37 37
6 6 6 6 6 6 6 7 7 7 7 8 8 8 8 8 8 8 8 8 9 10 10 10 10 11 11 12 12 13 13 13 13 13 13 13 13 13 12 12 12 12 12 12 12 12 12 12 12 12 13 13 13 14 14 14 14 14 14 14 15 15 14 14 14 13 13 12 12 12 12 11 11 10 10 10 9 8 8 8 8 8 9 10 11 12 14 16 18 21 23 26 28 30 32 34 35 36 37 38 38 38 38
7 7 7 7 7 7 7 7 7 8 8 8 8 8 8 8 8 9 9 9 10 10 10 10 11 11 12 12 12 13 13 13 13 13 13 13 13 13 12 12 12 12 12 12 12 12 12 12 12 13 13 14 14 14 14 14 14 14 15 15 15 15 14 14 14 13 12 12 12 12 11 11 10 10 10 8 8 8 8 8 9 10 11 13 14 16 18 21 23 26 28 30 32 34 36 37 38 38 38 38 38 38 37
7 7 7 7 7 7 7 7 8 8 8 8 8 8 9 9 9 9 10 10 10 10 10 11 11 12 12 13 13 13 13 13 13 13 13 13 13 13 13 13 13 13 13 12 12 12 12 12 13 13 14 14 14 14 14 14 15 15 15 15 15 14 14 14 13 13 12 12 12 11 11 10 10 10 8 8 8 8 9 10 11 12 14 16 18 20 23 26 28 30 32 34 36 38 38 39 39 39 39 38 37 37 36
7 7 7 7 7 7 7 8 8 8 8 8 8 9 9 10 10 10 10 10 10 10 11 11 12 12 13 13 14 13 13 13 13 13 13 13 13 13 13 13 13 13 13 13 13 13 13 13 13 14 14 14 14 15 15 15 15 15 15 15 15 14 14 13 13 12 12 12 11 11 10 10 10 8 8 8 9 10 11 12 14 16 18 20 22 24 26 29 32 34 36 37 39 40 40 40 40 39 38 38 37 36 36
7 7 7 7 7 7 8 8 8 8 8 9 9 9 10 10 10 10 10 10 10 10 11 11 12 12 13 14 14 14 14 14 13 13 13 13 13 13 13 13 13 13 13 13 13 14 14 14 14 14 14 15 15 15 15 15 16 15 15 15 14 14 14 13 12 12 12 11 11 10 10 9 8 8 8 10 10 12 13 15 17 19 21 23 26 28 30 32 35 37 38 40 40 41 41 40 40 39 38 37 36 36 36
8 8 7 7 8 8 8 8 8 8 8 9 10 10 10 10 10 10 10 10 10 10 11 11 12 12 13 13 14 14 14 14 14 14 14 14 14 13 13 13 14 14 14 14 14 14 14 14 14 14 15 15 15 16 16 16 16 16 15 15 14 14 13 13 12 12 12 11 10 10 10 9 8 9 10 11 12 14 16 18 20 22 24 26 28 30 33 35 37 39 40 42 42 42 42 40 40 38 37 37 36 36 36
8 8 8 8 8 8 8 8 8 8 9 9 10 10 10 10 10 10 10 10 10 10 10 11 11 12 12 13 14 14 15 15 15 14 14 14 14 14 14 14 14 14 14 15 15 15 15 15 15 15 15 16 16 16 16 16 16 16 16 15 14 14 13 12 12 12 11 11 10 10 9 9 10 10 11 13 14 16 18 20 22 24 26 28 31 33 36 38 40 40 42 42 42 42 42 40 39 38 37 37 36 36 37
8 8 8 8 8 8 8 8 9 9 9 10 10 10 10 10 10 10 10 10 10 10 10 11 11 12 12 13 14 14 15 15 15 15 14 14 14 14 14 14 14 15 15 16 16 16 15 15 15 15 16 16 16 16 16 16 16 16 16 15 14 14 13 12 12 11 11 10 10 10 10 10 10 12 13 14 16 18 20 22 24 26 28 30 33 35 37 39 40 42 43 43 42 42 42 40 39 38 38 37 37 38 38
8 8 8 8 8 8 9 9 10 10 10 10 10 10 10 10 10 10 10 10 10 11 11 12 12 12 13 13 14 14 15 15 15 14 14 14 14 14 14 14 15 16 16 16 16 16 16 16 16 16 16 16 16 16 16 16 16 16 16 15 14 14 13 12 12 11 10 10 10 10 10 11 12 13 14 16 18 20 22 24 26 28 30 32 34 36 38 40 42 42 43 43 43 42 42 40 40 39 39 38 38 38 39
8 8 8 8 9 9 9 10 10 10 10 10 10 10 10 10 10 10 10 10 11 11 12 12 12 13 13 13 14 14 14 14 15 15 14 14 14 14 15 15 16 16 17 17 17 17 16 16 16 16 16 16 16 16 16 16 16 16 16 15 14 14 13 12 12 11 10 10 10 10 11 12 13 15 16 18 20 22 24 26 27 29 31 33 35 37 38 40 42 42 43 43 43 43 42 42 41 40 40 40 40 40 40
10 10 10 10 9 9 10 10 10 10 10 10 10 10 10 10 10 10 11 11 11 11 12 12 12 12 13 13 13 14 14 14 15 15 15 15 15 15 15 16 16 17 17 18 18 18 17 17 17 17 17 16 16 16 16 16 16 16 16 15 14 14 13 12 12 11 10 10 10 11 12 13 14 16 18 20 21 23 24 26 28 30 32 33 35 37 38 40 41 42 43 43 43 43 43 42 42 42 42 41 41 41 41
10 10 10 10 10 10 10 10 10 10 10 10 10 10 10 10 10 11 11 11 11 12 12 12 12 12 12 12 13 14 14 15 15 15 15 15 15 15 15 16 16 17 18 18 18 18 18 18 18 17 17 17 17 17 17 17 17 16 16 15 15 14 13 12 12 11 11 11 11 11 12 14 15 17 19 21 23 24 26 27 29 30 32 34 35 37 38 40 41 42 42 43 43 43 43 43 43 42 42 42 42 42 42
10 10 10 10 10 10 10 10 10 10 10 10 10 10 10 10 11 11 11 11 11 12 12 11 11 11 12 12 13 14 14 15 16 16 16 16 15 15 16 16 16 17 18 18 18 19 18 18 18 18 18 18 18 18 18 17 17 17 16 16 15 14 14 13 12 12 12 12 12 12 13 14 16 18 20 21 23 24 26 28 29 30 32 33 35 36 38 39 40 42 42 43 43 43 43 43 43 42 42 42 42 42 42
10 10 10 10 10 10 10 10 10 10 10 10 10 10 10 10 11 11 11 11 11 12 12 12 12 12 12 12 13 14 14 15 16 16 16 16 16 16 16 16 16 17 18 18 19 19 19 19 19 19 18 18 18 18 18 18 18 17 17 16 16 15 14 13 13 12 12 12 12 13 14 15 16 18 19 21 23 24 26 27 29 30 32 33 34 36 37 38 40 41 42 42 43 43 43 43 42 42 42 42 42 42 42
8 8 8 9 9 10 10 10 10 10 10 10 10 10 10 10 10 10 11 11 11 11 12 12 12 12 12 12 13 14 14 15 16 16 17 16 16 16 16 16 17 17 18 18 19 19 19 19 19 19 19 19 19 19 19 19 18 18 18 17 16 15 14 14 14 13 13 13 13 14 14 15 16 18 19 21 22 24 25 26 28 30 31 32 34 35 36 38 39 40 40 42 42 42 42 42 42 42 42 42 42 41 41
8 8 8 8 8 8 8 8 8 8 8 9 10 10 10 10 10 10 10 10 11 11 12 12 12 13 13 13 13 14 14 15 16 16 17 17 17 17 16 17 17 18 18 18 19 19 20 20 20 20 20 20 20 20 20 19 19 19 18 18 17 16 15 15 14 14 14 14 14 14 15 16 17 18 19 20 22 23 24 26 27 29 30 32 33 34 36 37 38 39 40 40 40 41 41 41 41 41 41 40 40 40 40
10 10 8 8 8 8 8 8 8 8 8 8 8 8 8 8 9 10 10 10 10 11 12 12 13 13 13 14 14 14 15 16 16 17 17 17 17 17 17 17 18 18 18 19 19 20 20 20 20 20 20 20 20 20 20 20 20 19 19 18 18 17 16 16 15 15 14 14 14 15 16 16 17 18 19 20 22 23 24 26 27 28 30 31 32 34 35 36 37 38 38 39 39 40 40 40 40 40 40 40 40 40 40
12 11 10 10 8 8 8 7 7 6 6 7 7 7 7 8 8 8 8 10 10 11 12 12 13 13 14 14 14 14 15 16 16 17 18 18 18 18 18 18 18 18 18 19 20 20 20 20 20 20 20 20 20 20 20 20 20 20 20 19 18 18 17 17 16 16 15 15 15 16 16 17 18 19 20 21 22 23 24 25 26 28 29 30 32 33 34 35 36 36 37 38 38 38 39 39 39 39 40 40 40 40 40
12 12 12 11 10 9 8 8 7 6 6 6 6 6 6 7 7 8 8 8 10 10 11 12 12 13 13 14 14 15 15 16 16 17 18 18 18 18 18 18 18 18 19 19 20 20 20 20 21 21 21 21 21 21 21 21 21 21 20 20 19 19 18 18 17 17 16 16 16 16 17 18 18 19 20 21 22 23 24 25 26 27 28 30 31 32 33 34 35 36 36 37 37 38 38 38 38 38 39 39 39 39 39
10 11 12 12 11 10 10 9 8 8 8 7 7 7 7 7 7 7 8 8 9 10 10 11 12 12 12 13 14 15 15 16 16 17 18 18 19 19 18 18 18 19 19 20 20 20 21 21 21 21 22 22 22 22 22 22 22 22 21 21 20 20 19 18 18 18 17 17 17 18 18 19 19 20 21 22 23 24 24 26 26 27 28 29 30 32 32 33 34 35 35 36 36 37 37 37 38 38 38 38 38 38 38
8 8 10 10 11 11 10 10 10 10 9 8 8 8 8 8 7 7 8 8 8 10 10 10 11 11 12 13 14 14 15 16 16 17 18 18 19 19 19 19 19 19 20 20 20 21 22 22 22 22 22 22 22 22 22 22 22 22 22 22 21 21 20 20 19 19 18 18 18 19 19 20 20 22 22 23 24 24 26 26 27 28 29 30 31 32 32 33 34 34 35 35 36 36 36 37 37 37 37 37 37 36 36
7 8 8 8 10 10 10 10 10 10 10 10 10 9 8 8 8 8 8 8 8 10 10 10 11 11 12 13 14 14 15 16 16 17 17 18 18 19 19 19 19 20 20 20 21 22 22 22 23 23 23 23 23 23 23 23 23 23 23 23 22 22 21 21 20 20 19 19 19 20 20 21 22 23 24 24 25 26 26 27 28 29 30 30 31 32 32 33 34 34 34 35 35 36 36 36 36 36 36 36 36 35 34
8 8 8 8 8 9 10 10 10 11 11 11 10 10 10 9 8 8 8 8 8 10 10 10 11 12 12 13 14 14 15 15 16 16 17 18 18 19 19 19 20 20 20 21 21 22 23 23 23 24 24 24 24 24 24 24 24 24 24 23 23 23 22 22 21 21 20 20 20 20 21 22 23 24 24 25 26 26 27 28 28 29 30 30 31 32 32 33 33 34 34 34 35 35 35 35 35 35 35 35 35 34 34
10 10 9 8 8 9 10 10 10 10 11 12 12 11 11 10 10 9 8 8 9 10 10 10 11 12 12 13 14 14 14 15 15 16 16 17 18 18 19 19 20 20 20 21 22 22 23 24 24 24 24 24 24 24 24 24 24 24 24 24 24 24 23 23 22 22 22 21 21 22 22 22 23 24 24 26 26 27 28 28 29 29 30 30 31 31 32 32 33 33 34 34 34 34 34 34 35 35 35 35 34 34 34
10 11 10 10 10 10 10 10 10 10 11 12 12 12 12 11 10 10 9 9 9 10 10 10 11 12 13 14 14 14 15 15 16 16 16 17 17 18 18 19 19 20 20 21 22 22 23 24 24 24 24 24 24 24 24 24 24 24 24 24 24 24 24 24 23 23 23 23 23 23 23 23 24 24 25 26 26 27 28 28 29 29 30 30 31 32 32 32 33 33 33 34 34 34 34 34 34 35 35 35 36 36 36
12 12 12 12 12 12 11 11 11 11 11 12 12 12 12 12 11 10 10 10 9 10 10 10 11 12 13 14 14 15 15 16 16 16 16 17 17 17 18 18 19 20 20 21 22 22 23 24 24 24 24 25 25 25 25 25 25 25 25 25 24 24 24 24 24 24 24 24 24 24 24 24 24 24 26 26 26 27 28 28 29 30 31 31 32 32 33 33 33 33 33 33 33 34 34 35 36 36 38 38 39 40 42
12 12 13 13 13 13 13 12 12 12 11 11 11 12 12 12 11 11 10 10 10 10 10 10 11 12 13 14 14 15 16 16 16 16 16 16 17 17 17 18 18 19 20 21 22 22 23 24 24 24 24 25 25 25 25 26 26 26 26 26 26 25 25 24 24 24 24 24 24 25 25 26 26 26 26 27 28 28 29 30 30 31 32 32 33 33 33 33 33 33 33 33 34 35 36 38 40 42 44 45 47 50 52
13 12 13 14 14 14 14 14 13 12 12 11 11 11 11 11 11 11 11 11 10 10 10 10 11 12 13 13 14 15 15 16 16 16 16 16 16 16 17 17 18 19 20 20 21 22 23 24 24 24 24 24 24 25 25 26 26 26 26 26 26 26 26 26 26 26 26 26 26 26 26 26 27 28 28 29 30 30 31 32 32 32 33 33 33 33 33 33 33 33 34 35 37 40 42 46 49 52 55 58 60 63 66
14 13 13 14 14 15 15 15 15 14 12 11 11 10 10 10 11 12 12 12 11 10 10 10 11 12 12 13 14 14 15 15 16 16 16 16 16 16 16 17 18 18 19 20 21 22 22 23 24 24 24 24 24 25 25 25 26 26 26 26 26 26 26 26 26 26 26 26 26 26 26 27 28 28 29 30 30 31 32 32 33 33 33 33 33 33 33 33 34 34 36 40 44 49 54 58 62 66 69 72 74 77 79
16 14 13 14 14 16 16 16 16 15 14 12 12 11 10 10 11 12 12 12 12 11 11 11 11 11 12 12 13 14 15 15 16 16 16 16 16 16 16 17 17 18 18 19 20 21 22 23 24 24 24 24 24 24 25 25 26 26 26 26 26 27 27 27 27 27 27 27 27 28 28 28 29 29 30 30 31 32 32 32 33 33 33 34 33 33 33 34 36 40 45 51 58 63 68 72 76 78 81 83 85 87 88
19 15 13 14 14 16 16 17 17 16 16 14 13 12 11 11 11 12 13 13 13 12 11 11 11 11 11 12 13 14 15 16 16 16 16 16 16 16 16 17 17 18 18 19 20 21 22 22 23 24 24 24 24 25 25 26 26 26 26 26 27 27 27 27 27 28 28 28 28 29 29 30 30 30 31 31 32 32 32 33 33 33 34 34 34 34 36 40 45 52 61 69 75 79 82 85 87 88 90 90 91 92 92
21 17 14 14 14 15 16 18 18 18 17 16 14 13 12 12 12 12 14 14 14 13 12 11 11 11 11 12 13 14 15 16 16 16 16 16 16 16 16 17 17 18 18 19 20 21 21 22 22 23 24 24 24 24 25 26 26 26 26 27 27 27 28 28 28 28 29 30 30 30 30 31 31 32 32 32 33 33 33 34 34 34 34 35 36 39 43 52 61 72 81 86 89 90 92 92 94 94 95 95 96 96 96
22 18 14 14 14 15 16 18 19 19 18 17 16 15 13 12 12 13 14 14 14 13 12 11 11 11 11 12 13 14 16 16 17 17 17 17 17 17 17 17 17 18 18 19 20 21 22 22 22 23 23 24 24 24 24 26 26 26 26 27 28 28 28 29 29 30 30 31 31 32 32 32 33 33 33 34 34 34 34 34 35 36 37 39 43 49 58 69 80 89 93 94 95 96 96 97 97 98 98 98 97 97 97
21 18 14 13 14 15 16 18 19 20 20 18 17 16 14 13 13 13 14 14 14 14 13 12 11 11 11 12 13 15 16 17 17 18 18 18 17 17 17 17 18 18 18 19 20 21 22 22 23 24 23 24 24 24 24 25 26 26 27 28 28 28 29 30 30 31 32 32 32 33 33 34 34 34 34 35 35 36 36 37 39 42 44 50 56 64 74 85 93 97 98 98 99 99 99 99 98 98 96 94 91 90 92
22 18 14 13 13 14 16 18 20 20 20 19 18 16 15 14 13 13 14 14 15 14 13 12 11 11 11 12 14 15 16 18 18 18 18 18 18 18 18 18 18 18 18 19 19 19 21 22 23 24 24 24 24 24 24 25 26 27 28 28 29 30 30 30 31 32 33 34 34 35 35 36 36 37 37 38 38 40 40 43 47 52 58 65 72 77 83 89 93 96 98 99 99 99 99 98 98 96 94 92 90 87 86
25 20 14 12 12 14 16 18 20 20 20 19 18 16 14 13 12 12 13 14 14 14 13 12 12 11 12 12 14 15 17 18 19 19 20 20 20 20 19 19 19 18 18 18 19 20 20 21 22 22 23 24 24 24 25 26 26 28 28 29 30 31 32 32 33 34 35 36 37 38 38 39 40 40 40 41 42 43 45 50 55 61 68 73 77 78 78 78 78 79 80 85 90 95 97 97 96 95 93 92 90 87 86
28 23 16 13 12 13 16 18 20 20 20 20 18 16 14 13 12 12 12 13 14 14 13 12 12 12 12 13 14 16 17 18 20 20 21 21 21 21 20 20 20 20 20 20 20 20 20 20 20 22 23 24 24 26 26 26 27 28 30 30 32 32 34 34 36 37 38 39 40 40 40 41 42 42 42 43 44 45 48 52 56 61 66 68 68 68 65 63 62 62 62 66 70 76 85 90 90 90 88 86 84 83 86
32 26 19 14 12 12 15 17 19 20 20 20 19 18 16 13 12 11 12 12 13 13 13 12 12 13 13 14 15 16 17 18 20 21 22 22 22 22 21 21 21 20 20 20 20 19 20 20 20 20 21 22 24 26 26 28 29 30 31 32 34 35 36 37 38 40 41 42 43 44 44 44 44 45 45 45 46 47 48 51 53 56 57 57 57 56 56 56 56 57 58 60 62 65 69 73 75 76 76 75 76 78 82
34 29 22 15 12 12 14 17 19 20 21 20 20 18 16 14 12 11 11 12 12 13 13 12 12 13 13 14 16 17 17 18 20 22 23 23 23 22 22 22 22 22 22 21 21 20 20 20 20 20 19 20 22 24 27 29 31 32 34 35 36 37 38 39 41 42 44 45 46 46 47 47 48 48 48 48 48 48 48 49 50 51 52 52 52 54 56 58 60 62 64 65 66 68 69 69 69 69 70 71 72 74 75
36 30 23 16 12 11 14 17 19 20 21 21 20 19 17 15 13 12 11 12 12 13 13 12 12 12 13 15 16 17 18 19 21 22 23 22 23 24 24 23 23 23 22 22 22 22 22 22 21 21 20 20 20 21 24 28 32 34 36 36 37 38 39 40 42 44 45 46 47 47 48 48 50 50 50 50 49 48 48 48 49 50 50 52 55 58 62 66 69 72 74 74 75 75 76 75 74 73 72 71 71 70 70
36 31 24 16 12 11 14 16 18 20 20 21 21 20 18 16 14 12 11 11 12 12 12 12 12 13 14 15 17 18 19 20 22 23 23 22 22 23 24 24 24 24 23 23 23 23 23 22 22 22 22 22 21 20 20 24 28 32 35 36 37 38 39 40 42 44 45 46 47 48 49 50 51 52 52 50 50 49 48 49 50 52 54 58 61 64 68 70 71 72 72 72 72 71 70 69 68 67 66 64 64 63 63
Wind_Speed
10 10 10 10 10 10 9 9 9 9 9 8 8 8 8 8 8 8 7 7 7 7 8 8 8 8 8 8 8 8 8 8 8 8 8 8 8 8 8 8 8 8 8 7 6 5 5 5 5 5 5 6 6 6 6 6 6 6 7 7 8 8 9 10 10 10 10 10 10 10 10 11 11 10 10 10 10 10 10 11 11 11 11 11 11 11 11 11 11 12 12 11 12 12 12 12 12 12 12 13 14 15 15
10 10 10 10 10 9 9 8 8 8 8 8 8 8 8 7 7 7 7 7 7 7 8 8 8 8 8 8 8 8 8 8 7 7 7 7 7 7 7 8 7 7 7 7 6 5 5 5 5 5 5 6 6 6 6 6 6 7 7 7 8 9 9 10 10 11 11 11 11 11 11 11 11 11 11 11 11 10 10 10 11 11 11 11 11 11 11 11 11 11 11 11 12 12 12 12 12 12 12 13 14 15 15
10 10 10 9 9 9 8 8 8 7 7 7 7 7 7 7 7 7 7 7 8 8 8 8 8 8 8 8 8 7 7 7 7 7 7 7 7 7 7 7 7 7 7 6 6 5 5 5 5 5 6 6 7 7 7 7 7 8 8 8 9 9 10 10 11 11 11 11 11 11 11 11 11 11 11 11 11 11 11 11 11 11 11 11 11 11 11 11 11 11 11 11 12 12 12 12 12 12 12 13 13 14 15
10 9 9 9 9 8 8 8 7 7 7 7 7 7 7 7 7 7 7 8 8 8 8 8 8 8 8 8 7 7 7 7 7 6 6 6 6 6 6 6 6 6 6 6 5 5 5 5 5 5 6 7 8 8 8 8 9 9 9 9 10 10 10 11 11 11 12 12 12 12 12 12 11 11 11 11 11 11 11 11 11 11 11 11 11 11 11 11 11 11 11 12 12 12 12 12 12 12 12 12 13 14 14
9 9 9 8 8 8 8 8 7 7 7 7 7 7 7 7 7 7 8 8 8 8 8 8 8 8 8 7 7 7 7 6 6 6 6 6 6 6 6 6 6 6 6 6 5 5 5 5 5 6 7 8 8 9 9 9 10 10 10 10 11 11 11 11 11 11 12 12 12 12 12 12 11 11 11 11 11 11 11 11 11 11 12 12 11 11 11 11 11 11 12 12 11 12 12 12 12 12 12 12 13 13 13
9 9 9 8 8 8 8 7 7 7 7 7 7 7 7 7 7 7 8 8 8 8 8 8 8 8 8 7 7 6 6 6 6 6 5 5 5 5 5 5 5 5 5 5 5 5 5 5 6 7 7 8 9 10 10 11 11 11 11 11 11 11 12 12 12 12 12 12 12 12 12 11 11 11 11 11 11 11 11 11 11 11 11 11 11 11 11 11 11 11 11 11 12 11 12 12 12 12 12 12 12 12 13
9 9 9 8 8 8 8 7 7 7 7 7 7 7 7 7 7 7 7 8 8 8 8 8 8 8 7 7 7 6 6 6 6 5 5 5 5 5 5 5 5 5 5 5 5 5 5 6 6 7 8 9 9 10 11 11 11 11 11 11 12 12 12 12 12 12 12 12 12 11 11 11 11 11 11 11 11 11 11 11 11 11 11 11 11 11 11 11 11 11 11 11 11 11 11 11 11 12 12 12 12 12 12
9 9 8 8 8 7 7 7 7 7 7 7 7 7 7 7 7 7 7 7 8 8 8 8 7 7 7 7 7 6 6 6 5 5 5 4 4 4 4 4 4 4 5 5 5 5 5 6 7 8 8 9 9 10 10 11 11 11 11 11 12 12 12 12 12 12 12 12 11 11 11 11 11 11 11 11 11 11 11 11 11 11 11 11 11 11 11 11 11 11 11 11 11 11 11 11 11 11 11 11 12 12 12
9 9 8 8 8 7 7 7 7 7 7 7 7 7 7 7 7 7 7 7 7 7 7 7 7 7 6 6 6 6 6 5 5 5 5 4 4 4 4 4 4 4 5 5 5 5 6 6 7 8 9 9 9 10 10 11 11 11 11 11 11 12 12 12 12 12 12 11 11 11 11 11 11 11 11 11 11 11 11 11 11 11 11 11 11 11 11 11 11 11 11 11 11 11 11 11 11 11 11 11 11 12 12
9 8 8 8 7 7 7 7 7 7 7 7 6 6 6 6 6 7 7 7 7 7 7 7 7 6 6 6 6 6 5 5 5 5 4 4 4 4 4 4 4 5 5 5 6 6 7 7 8 9 9 9 10 10 10 10 11 11 11 11 11 11 12 12 12 12 11 11 11 11 11 11 11 10 11 11 11 11 11 11 11 11 11 11 11 11 11 11 11 11 11 11 11 11 11 11 11 11 11 11 11 12 12
8 8 8 7 7 7 7 7 7 6 6 6 6 6 6 6 6 6 6 6 6 6 6 6 6 6 6 6 5 5 5 5 5 4 4 4 4 4 4 5 5 5 6 6 7 7 7 8 9 9 10 10 10 10 10 10 11 11 11 11 11 11 11 11 11 11 11 11 11 11 11 11 10 10 11 11 11 11 11 11 11 11 11 11 11 11 11 11 11 11 11 11 11 11 11 11 11 11 11 12 12 12 12
8 8 8 7 7 7 6 6 6 6 6 6 6 6 6 6 6 6 6 6 6 6 6 6 6 6 5 5 5 5 4 4 4 4 4 4 4 4 5 5 6 6 7 7 8 8 8 9 9 10 10 10 10 10 10 10 11 11 11 11 11 11 11 11 11 11 11 11 11 11 11 11 10 10 11 11 11 11 11 11 11 11 11 11 11 11 11 11 11 11 10 11 11 11 11 11 11 12 12 12 12 13 13
8 8 7 7 7 6 6 6 6 6 6 6 6 6 5 5 5 5 5 5 5 5 5 5 5 5 5 4 4 4 4 4 4 3 3 4 4 4 5 6 6 7 7 8 8 8 9 9 9 10 10 10 10 10 10 10 11 11 11 11 11 11 11 11 11 11 11 11 11 11 11 11 11 10 10 10 10 10 10 10 10 10 10 10 10 11 11 11 11 11 11 11 11 11 11 12 12 12 12 13 13 13 14
8 7 7 7 7 6 6 6 6 6 6 5 5 5 5 5 5 5 5 5 4 4 4 4 4 4 4 4 4 3 3 3 3 3 3 4 4 5 5 6 7 8 8 9 9 9 9 9 10 10 10 10 10 10 10 10 11 11 11 10 10 11 11 11 11 11 11 11 11 11 11 11 10 10 10 10 10 10 10 10 10 10 10 10 10 10 11 11 11 11 11 11 11 12 12 12 12 13 13 13 14 14 14
8 7 7 7 7 6 6 6 6 6 5 5 5 5 5 5 4 4 4 4 4 4 4 3 3 3 3 3 3 3 3 3 3 3 4 4 5 5 6 7 8 8 9 9 9 10 10 10 10 10 10 10 10 10 10 10 10 10 10 10 10 10 10 11 11 10 11 11 11 11 11 11 10 10 10 10 10 10 10 10 10 10 10 10 10 10 11 11 11 11 11 12 12 12 12 12 13 13 13 13 14 14 14
8 7 7 7 7 6 6 6 6 5 5 5 5 5 4 4 4 4 3 3 3 3 3 3 3 3 3 3 3 3 3 3 3 4 4 5 5 6 7 7 8 8 9 9 10 10 10 10 10 10 10 10 10 10 10 10 10 10 10 10 10 10 10 11 11 10 10 11 11 11 11 10 10 10 10 10 10 10 10 10 10 10 10 10 10 11 11 11 11 11 12 12 12 12 12 13 13 13 13 13 14 14 14
8 8 7 7 7 6 6 6 6 5 5 5 5 4 4 4 3 3 3 3 3 3 3 3 3 3 3 3 3 3 3 3 4 4 5 5 6 7 7 8 8 9 9 9 10 10 10 10 10 10 10 10 10 10 10 10 10 10 10 10 10 10 10 11 11 11 11 11 11 11 11 10 10 10 10 10 9 9 9 10 10 10 10 10 11 11 11 11 12 12 12 12 12 12 12 13 13 13 13 13 13 14 14
8 8 7 7 7 6 6 6 5 5 5 5 5 4 4 4 3 3 3 3 2 2 2 2 2 3 3 3 3 3 3 4 4 5 5 6 7 7 8 8 8 9 9 9 10 10 10 11 11 10 10 10 10 10 10 10 10 10 10 10 10 10 10 10 11 11 11 11 11 10 10 10 10 10 10 9 9 9 9 9 10 10 10 10 11 11 11 11 11 12 12 12 12 12 12 12 12 12 13 13 13 14 14
8 8 7 7 6 6 6 6 5 5 5 5 4 4 4 4 3 3 3 3 2 2 2 2 2 2 3 3 3 4 4 4 5 5 6 6 7 8 8 8 9 9 9 10 10 10 10 11 11 10 10 10 10 10 10 10 10 10 10 10 10 10 10 10 10 11 11 10 10 10 10 10 10 10 9 9 9 9 9 9 10 10 10 10 11 11 11 11 11 11 11 11 11 11 12 12 12 12 13 13 13 14 14
8 8 7 7 7 6 6 6 6 5 5 5 4 4 4 4 3 3 3 2 2 2 2 2 2 2 3 3 4 4 5 5 5 6 6 7 7 8 8 9 9 9 10 10 10 10 10 10 10 10 10 10 10 10 10 9 9 9 9 10 10 10 10 10 10 10 10 10 10 10 10 10 9 9 9 9 9 9 9 9 10 10 10 10 10 10 11 11 11 11 11 11 11 11 11 12 12 12 13 13 14 14 15
8 8 7 7 7 6 6 6 6 5 5 5 4 4 4 4 3 3 3 2 2 2 2 2 2 3 3 3 4 4 5 5 6 6 6 7 7 8 8 9 9 9 10 10 10 10 10 10 10 10 10 10 9 9 9 9 9 9 9 9 10 10 10 10 10 10 10 10 10 10 10 10 9 9 9 9 9 9 9 10 10 10 10 10 10 10 10 10 10 10 10 11 11 11 11 12 12 13 13 14 14 15 15
8 8 7 7 7 6 6 6 6 5 5 5 5 4 4 4 4 3 3 3 2 2 2 2 2 3 3 3 4 4 5 5 6 6 6 7 7 8 8 9 9 9 10 10 10 10 10 10 10 9 9 9 9 9 9 9 9 9 9 9 9 9 10 10 10 10 10 10 10 10 10 9 9 9 9 9 9 9 10 10 10 10 10 10 10 10 10 10 10 10 10 11 11 11 12 12 13 13 14 14 15 15 16
8 8 7 7 7 6 6 6 6 6 5 5 5 4 4 4 4 3 3 3 2 2 2 2 2 3 3 4 4 5 5 6 6 6 6 7 7 8 8 9 9 9 10 9 9 9 9 9 9 9 9 9 9 9 9 9 9 9 9 9 9 9 9 9 10 10 10 10 10 9 9 9 9 9 9 9 9 10 10 10 10 10 10 10 10 10 10 10 10 10 10 11 11 12 12 13 13 14 14 15 15 16 16
8 8 7 7 7 7 6 6 6 6 5 5 5 4 4 4 3 3 3 2 2 2 2 2 2 3 3 4 5 5 6 6 6 6 7 7 7 8 8 8 9 9 9 9 9 9 9 9 9 9 8 8 8 8 9 9 9 9 9 9 9 9 9 9 9 9 9 9 9 9 9 9 9 9 9 9 10 10 10 10 10 10 10 10 10 9 10 10 10 10 11 11 12 12 13 13 14 14 15 15 16 16 16
8 8 7 7 7 6 6 6 6 6 5 5 5 4 4 3 3 3 3 2 2 2 2 3 3 3 3 4 5 5 6 6 6 7 7 7 7 7 8 8 8 9 9 9 9 9 8 8 8 8 8 8 8 8 8 8 9 9 9 9 9 9 9 9 9 9 9 9 9 9 9 9 9 9 9 9 9 10 10 10 10 10 10 10 9 10 10 10 10 11 11 12 12 13 13 14 14 15 15 16 16 16 17
8 8 7 7 7 6 6 6 6 5 5 5 4 4 4 3 3 3 3 3 3 3 3 3 3 3 4 4 4 5 6 6 7 7 7 7 7 7 7 7 8 8 8 8 8 8 8 8 8 8 8 8 8 8 8 8 9 9 9 9 9 9 9 9 9 9 9 9 9 9 9 9 9 9 9 9 9 9 10 10 10 10 10 10 10 10 10 10 11 11 12 12 13 13 14 14 15 15 16 16 16 17 17
8 8 7 7 7 6 6 6 5 5 5 4 4 4 3 3 3 3 3 3 4 4 4 4 4 4 4 4 5 5 5 6 6 6 6 6 6 7 7 7 7 8 8 8 8 8 8 8 8 8 8 8 8 8 8 8 9 9 9 9 9 9 9 9 9 9 9 9 9 10 9 9 9 9 9 9 9 9 9 10 10 10 10 10 10 10 11 11 11 12 12 13 13 13 14 14 15 15 16 16 17 17 17
8 8 7 7 7 6 6 5 5 5 4 4 4 4 4 4 3 3 4 4 4 5 5 5 5 5 5 5 5 5 5 5 6 6 6 6 6 6 7 7 7 7 8 8 8 8 8 8 7 7 8 8 8 8 8 8 8 9 9 9 9 9 9 9 9 9 9 9 10 10 10 10 9 9 9 9 9 9 10 10 10 10 10 11 11 11 11 12 12 12 13 13 13 14 14 15 15 16 16 17 17 17 17
8 8 7 7 7 6 6 6 5 5 4 4 4 4 4 4 4 4 4 4 5 5 5 6 6 6 6 6 5 5 5 5 5 5 6 6 6 6 7 7 7 7 7 7 8 8 8 8 8 8 8 8 8 8 8 8 8 9 9 9 9 9 9 9 9 9 9 9 10 10 10 10 10 10 10 10 10 10 10 10 10 11 11 11 12 12 12 13 13 13 13 14 14 15 15 16 16 16 17 17 17 18 18
8 8 7 7 7 7 6 6 5 5 4 4 4 4 4 4 4 4 4 5 5 6 6 6 6 7 7 7 6 6 5 5 5 5 5 6 6 6 6 7 7 7 7 7 7 8 8 8 8 8 8 8 8 8 8 8 9 9 9 9 9 9 9 9 9 9 9 9 10 10 10 10 10 10 10 10 10 10 11 11 11 11 12 12 12 13 13 14 14 14 14 15 15 15 16 16 17 17 18 18 18 18 18
8 8 7 7 7 7 7 6 6 5 4 4 4 4 4 5 5 5 5 5 5 6 7 7 7 7 7 7 7 6 6 5 5 5 5 6 6 6 6 7 7 7 7 7 7 8 8 8 8 8 8 8 8 8 8 9 9 9 8 8 9 9 9 9 9 9 9 9 10 10 10 10 10 11 11 11 11 11 11 11 12 12 12 13 13 13 14 14 15 15 15 16 16 16 17 17 18 18 19 19 19 19 20
8 7 7 7 7 7 7 6 6 5 5 4 4 4 4 5 6 6 6 6 6 6 7 7 8 7 7 7 7 7 6 6 6 5 6 6 6 6 6 7 7 7 7 7 7 7 8 8 8 8 8 8 8 8 9 9 9 9 9 9 9 9 9 9 9 9 9 9 10 10 10 10 11 11 11 11 11 12 12 12 12 12 13 13 14 14 15 15 16 16 16 17 17 17 18 18 19 19 20 20 20 21 21
8 8 8 7 7 7 7 6 5 5 4 4 4 4 5 6 6 6 6 6 6 7 7 8 8 8 7 7 7 7 6 6 6 6 6 6 6 6 6 7 7 7 7 7 7 7 8 8 8 8 8 8 9 9 9 9 9 9 9 9 9 9 9 9 9 9 9 10 10 10 10 11 11 11 11 12 12 12 12 13 13 13 14 14 14 15 15 16 16 17 17 18 18 19 19 20 20 20 21 21 22 22 22
8 8 8 7 7 7 6 5 4 4 4 4 5 5 6 6 7 7 7 7 7 7 7 8 8 8 7 7 7 7 7 7 7 6 6 6 6 7 7 7 7 7 7 7 7 8 8 8 8 8 8 9 9 9 9 9 9 9 9 9 9 9 9 9 9 9 10 10 10 10 11 11 11 12 12 12 13 13 13 14 14 14 15 15 16 16 16 17 17 18 18 19 19 20 21 21 21 22 22 23 23 24 24
8 8 8 7 7 6 5 5 4 4 5 5 6 6 7 7 8 8 8 7 7 7 7 7 7 8 7 7 7 7 7 7 7 7 7 7 7 7 7 7 7 7 7 7 7 8 8 8 8 8 8 9 9 9 9 9 9 9 9 9 9 9 9 9 10 10 10 10 10 11 11 11 12 12 12 13 13 14 14 15 15 16 16 16 17 17 18 18 19 19 20 20 21 21 22 22 23 23 24 24 25 25 26
9 8 8 7 6 6 6 6 6 6 6 7 7 7 8 8 8 8 8 8 7 7 7 7 7 7 8 8 8 7 7 7 7 7 7 7 7 7 7 7 7 7 7 7 8 8 8 8 8 8 9 9 9 9 9 9 10 10 10 10 10 10 10 10 10 10 10 11 11 11 11 12 12 13 13 14 14 15 15 16 16 17 17 18 18 19 19 20 20 21 21 22 22 23 23 24 24 25 25 26 26 27 27
9 8 8 7 7 6 6 7 7 7 8 8 8 9 9 9 9 9 8 8 7 7 7 7 7 7 8 8 8 8 8 7 7 7 7 7 7 8 8 8 8 8 8 8 8 8 8 8 8 8 9 9 9 10 10 10 10 10 10 10 10 10 10 10 10 10 11 11 11 12 12 12 13 13 14 14 15 15 16 16 17 18 18 19 19 20 20 21 21 22 22 23 23 24 24 25 25 26 26 27 27 28 28
10 9 8 8 8 7 8 8 8 9 9 9 9 9 9 9 9 9 8 7 7 7 7 7 7 7 8 8 8 8 8 8 8 8 8 8 8 8 8 8 8 8 8 8 8 8 8 8 9 9 9 9 9 10 10 10 10 10 10 11 11 11 11 11 11 11 11 11 12 12 12 13 13 14 14 15 16 16 17 17 18 18 19 20 20 21 21 22 22 23 24 24 25 25 26 26 27 27 28 28 29 29 30
10 10 9 9 9 9 9 9 9 9 9 9 9 10 10 9 9 9 8 7 7 7 7 8 8 8 8 8 8 9 9 8 8 8 8 8 8 8 8 8 9 9 9 9 9 9 9 9 9 9 9 9 10 10 10 10 11 11 11 11 11 11 11 11 11 11 12 12 12 13 13 13 14 14 15 16 16 17 18 18 19 19 20 21 21 22 22 23 24 24 25 25 26 26 27 27 28 28 29 29 30 30 31
11 10 10 10 9 9 9 9 9 9 9 9 9 9 9 9 9 8 8 7 7 8 8 8 8 8 8 8 8 9 9 9 9 9 8 8 9 9 9 9 9 9 9 9 9 9 9 9 9 9 9 10 10 10 11 11 11 11 11 11 12 12 12 12 12 12 12 13 13 13 14 14 15 15 16 16 17 18 18 19 20 20 21 22 22 23 23 24 25 25 26 26 27 28 28 29 29 30 30 31 31 31 31
10 10 10 10 10 9 9 9 9 8 8 8 8 9 9 9 9 8 8 8 8 8 8 9 9 8 8 8 8 9 9 9 9 9 9 9 9 9 9 9 9 9 9 10 10 10 10 10 10 10 10 10 10 10 11 11 12 12 12 12 12 12 12 12 13 13 13 13 14 14 14 15 15 16 17 17 18 19 19 20 21 21 22 23 23 24 25 25 26 26 27 28 28 29 29 30 30 31 31 32 32 32 32
9 9 9 9 9 9 8 8 8 8 7 8 8 8 8 8 8 8 8 8 8 8 9 9 9 9 9 8 9 9 9 9 10 10 10 10 10 10 10 10 10 10 10 10 10 10 10 10 10 10 10 10 10 11 11 12 12 12 12 13 13 13 13 13 13 14 14 14 15 15 15 16 16 17 18 18 19 20 20 21 22 22 23 24 24 25 26 26 27 27 28 29 29 30 30 31 31 32 32 32 33 33 33
7 7 7 7 7 7 7 7 7 7 7 7 7 7 8 8 8 8 8 8 8 8 9 9 9 9 9 9 9 9 9 10 10 10 10 10 10 10 10 10 10 10 10 10 10 10 11 11 11 11 11 11 11 11 11 12 12 13 13 13 13 13 14 14 14 14 15 15 16 16 16 17 17 18 19 19 20 21 21 22 23 23 24 25 25 26 27 27 28 28 29 30 30 31 31 32 32 32 33 33 34 34 34
6 6 6 6 5 5 5 5 5 5 6 6 7 7 8 8 8 8 8 8 8 8 9 9 9 9 9 9 9 9 10 10 10 10 11 11 11 11 10 10 10 10 10 11 11 11 11 11 11 11 11 12 12 12 12 12 13 13 13 14 14 14 14 15 15 15 16 16 16 17 17 18 18 19 20 20 21 22 22 23 24 24 25 26 26 27 28 28 29 29 30 30 31 31 32 32 33 33 33 34 34 34 35
5 5 4 4 4 4 4 4 4 5 5 6 6 7 8 8 8 8 8 8 8 8 8 9 9 9 9 9 9 10 10 10 11 11 11 11 11 11 11 11 11 11 11 11 11 12 12 12 12 12 12 12 12 13 13 13 13 14 14 14 15 15 15 16 16 16 17 17 18 18 18 19 19 20 21 21 22 23 23 24 25 25 26 27 27 28 29 29 30 30 31 31 31 32 32 33 33 34 34 34 35 35 35
4 4 4 4 3 3 3 3 4 4 5 6 6 7 8 8 8 8 8 8 8 8 8 8 9 9 9 9 10 10 10 10 11 11 11 12 12 12 11 11 11 11 11 11 12 12 12 12 13 13 13 13 13 13 14 14 14 14 14 15 15 15 16 16 17 17 18 18 19 19 20 20 21 21 22 22 23 24 24 25 26 27 27 28 28 29 30 30 31 31 31 32 32 32 33 33 34 34 34 35 35 35 36
4 4 4 4 4 3 3 3 4 4 5 6 6 7 8 8 8 7 7 8 8 8 8 8 9 9 9 10 10 10 10 10 10 11 11 12 12 12 12 12 11 11 11 12 12 12 13 13 13 13 14 14 14 14 15 15 15 15 15 15 16 16 16 17 18 18 19 19 20 20 21 21 22 22 23 24 24 25 26 26 27 28 28 29 29 30 30 31 31 32 32 32 33 33 33 34 34 34 35 35 35 36 37
4 5 4 4 4 4 4 4 4 4 5 6 6 7 7 7 7 7 7 8 8 8 8 8 9 9 9 10 10 10 10 10 10 11 11 12 12 12 12 12 12 12 12 12 12 13 13 13 14 14 14 15 15 15 15 16 16 16 16 16 17 17 17 18 18 19 19 20 20 21 22 22 23 23 24 25 25 26 27 27 28 29 29 30 30 31 31 31 32 32 32 33 33 33 34 34 34 35 35 35 36 36 37
5 5 5 5 5 4 4 4 4 5 5 6 7 7 7 7 7 7 7 7 8 8 8 8 9 9 10 10 10 10 10 10 10 11 11 11 12 12 12 12 12 13 13 13 13 13 13 14 14 14 15 15 16 16 16 16 17 17 17 17 17 18 18 19 19 20 20 20 21 21 22 23 23 24 25 25 26 27 27 28 29 29 30 30 31 31 32 32 32 32 33 33 34 34 34 35 35 35 35 36 36 37 38
5 6 6 6 6 5 5 5 5 5 6 6 7 7 7 7 7 7 7 7 8 8 8 8 9 9 9 10 10 10 9 10 10 10 11 11 12 12 12 12 13 13 13 13 13 13 14 14 14 15 15 16 16 17 17 17 17 18 18 18 18 19 19 20 20 20 21 21 21 22 22 23 24 24 25 26 26 27 28 28 29 30 30 31 31 32 32 32 33 33 33 34 34 35 35 35 36 36 36 37 37 38 40
5 6 7 7 7 6 6 6 5 5 6 6 7 7 7 7 6 6 7 7 8 8 8 8 9 9 9 9 10 9 9 10 10 10 11 11 11 12 12 12 13 13 14 14 14 14 14 14 15 15 16 16 17 17 17 18 18 18 19 19 19 20 20 21 21 22 22 22 22 23 23 24 25 25 26 26 27 28 28 29 30 30 31 31 32 32 32 32 33 33 33 34 35 35 36 36 37 37 37 38 39 40 42
5 6 7 8 8 7 7 6 6 6 6 7 7 7 7 7 6 6 7 7 8 8 8 9 9 9 9 9 9 9 9 10 10 10 11 11 11 12 12 12 13 13 13 14 14 15 15 15 15 15 16 16 17 17 18 18 18 19 19 19 20 20 21 21 22 22 23 23 23 24 24 25 26 26 27 27 28 29 29 30 30 31 32 32 32 32 32 32 32 33 34 35 36 36 37 37 37 38 38 40 41 42 44
5 7 8 8 8 8 7 7 6 6 6 7 7 7 7 7 6 6 7 7 8 8 8 9 9 9 9 9 9 9 9 9 10 10 10 11 11 12 12 12 13 13 13 13 14 15 15 15 15 16 16 17 17 17 18 18 19 19 19 20 20 21 21 22 22 23 23 24 24 25 25 26 26 27 28 28 29 29 30 31 31 32 32 33 33 33 32 32 32 33 35 36 37 37 37 37 37 38 38 40 41 43 45
6 7 8 9 9 9 8 7 6 6 7 7 7 8 7 7 7 6 7 7 7 8 8 9 9 9 9 8 8 8 9 9 10 10 10 11 11 12 12 13 13 13 13 13 14 14 15 15 16 16 17 17 17 18 18 19 19 19 20 20 21 21 22 22 23 23 23 24 24 25 25 26 27 28 28 29 29 30 31 31 32 32 33 33 33 33 33 32 32 33 35 36 37 36 36 36 36 37 38 39 41 43 45
6 7 8 9 9 9 8 7 7 6 6 7 7 8 7 7 7 7 7 7 7 8 8 8 8 8 8 8 8 8 9 9 10 10 10 11 11 12 13 13 13 13 13 14 14 14 14 15 15 16 17 18 18 18 18 19 19 20 20 21 21 22 22 22 23 23 24 24 25 25 26 26 27 28 28 29 30 30 31 31 32 33 33 34 34 34 34 33 33 34 35 36 37 36 36 35 35 35 37 38 41 43 45
7 8 8 9 10 9 9 8 7 6 6 7 7 8 8 7 7 7 7 7 7 8 8 8 8 8 8 8 8 8 9 9 10 10 10 11 11 11 12 13 14 14 14 14 14 14 15 15 15 15 16 17 17 18 18 19 19 20 20 21 21 22 22 23 23 23 24 24 25 25 26 26 27 28 28 29 29 30 31 31 32 33 33 34 35 36 36 36 36 36 37 38 39 39 39 39 38 38 39 41 43 44 46
9 8 9 9 10 10 9 8 7 6 6 7 7 8 8 7 7 7 7 7 7 8 8 8 8 8 8 8 8 8 9 9 10 10 10 11 11 11 12 12 13 14 15 15 15 15 15 15 15 15 15 16 17 17 18 18 19 20 20 21 21 22 22 23 23 24 24 24 25 25 26 27 28 28 29 29 30 30 31 31 32 33 34 34 36 37 38 38 39 40 40 41 42 43 43 44 44 44 45 46 47 47 48
10 10 9 10 10 10 9 8 7 6 6 7 7 8 8 8 7 7 7 7 8 8 8 8 8 8 7 7 7 8 8 9 10 10 10 11 11 11 12 12 12 13 13 14 15 15 15 16 16 16 16 16 16 17 18 18 19 19 20 21 21 22 22 23 23 24 24 25 25 26 27 27 28 29 30 30 31 31 32 32 33 33 34 35 36 37 38 38 39 40 41 41 42 43 44 45 46 47 47 48 48 49 49
11 11 10 10 10 10 9 8 7 7 6 7 7 8 8 8 8 8 7 7 8 8 7 8 8 7 7 7 7 7 8 9 9 10 10 10 11 11 12 12 12 13 13 13 14 15 15 16 17 17 17 17 16 16 17 18 18 19 20 20 21 22 22 23 23 24 24 25 26 26 27 28 28 29 30 31 32 32 33 33 34 34 35 36 36 37 38 38 39 40 40 41 42 42 43 44 45 46 47 48 48 49 50
13 12 11 11 10 10 9 9 8 7 7 7 8 8 9 9 9 8 8 8 8 8 7 7 7 7 7 7 7 7 7 8 9 9 9 10 11 11 12 12 12 13 13 14 14 15 15 16 17 18 18 18 18 17 16 16 17 19 19 20 21 22 22 22 23 24 24 25 26 27 27 28 29 30 31 32 32 33 33 34 34 35 36 36 37 38 38 39 40 40 41 41 42 43 43 44 45 46 47 48 49 49 50
14 13 12 11 10 10 10 9 8 7 7 7 8 9 9 9 9 9 8 8 8 8 8 8 8 7 7 7 7 7 7 8 8 9 9 10 11 11 12 12 12 13 13 14 15 16 16 17 17 18 19 19 20 19 18 17 17 18 19 20 21 22 22 22 22 23 24 25 25 26 28 29 30 31 31 32 33 34 34 35 35 36 37 37 38 39 39 40 41 41 42 42 43 44 44 45 46 47 48 49 49 50 50
Wind_Direction
230 234 238 242 245 247 248 248 249 251 253 255 256 257 259 261 262 264 265 266 266 267 268 270 271 274 275 277 280 282 284 286 287 289 290 290 290 291 291 292 294 296 300 304 311 318 320 321 320 316 311 308 308 313 320 327 329 328 327 325 323 320 319 318 319 320 320 319 318 317 316 316 316 315 315 314 313 313 311 310 310 310 310 309 309 309 309 308 308 308 309 308 307 306 307 308 307 305 303 303 302 303 303
233 236 239 242 245 246 248 247 248 248 249 250 252 253 255 258 261 264 266 267 268 269 270 272 273 275 277 279 281 283 285 287 288 290 290 290 291 292 293 295 297 300 303 308 315 322 326 326 324 320 315 312 313 318 325 330 331 329 327 325 323 320 319 320 321 322 322 321 320 319 319 318 318 319 318 317 316 315 313 313 312 312 312 311 311 311 310 310 310 310 310 309 309 308 308 308 308 307 305 305 304 304 305
234 236 239 240 242 244 245 245 244 244 245 247 249 252 254 258 261 265 267 269 270 272 274 275 276 277 279 280 283 285 287 288 289 289 290 290 291 293 295 298 301 303 307 312 319 325 329 329 326 322 318 316 318 323 328 330 330 327 326 325 323 321 321 321 322 323 322 321 321 321 320 321 321 321 319 318 317 317 316 315 315 314 314 314 314 313 313 312 312 311 311 311 311 311 310 310 309 309 308 306 305 305 306
233 235 236 238 239 240 241 241 241 240 241 244 247 252 255 259 263 267 269 272 273 275 276 278 279 280 281 282 284 286 288 288 289 289 290 291 293 295 298 301 303 307 310 315 321 328 330 330 327 323 320 319 322 326 329 329 328 326 326 325 324 322 322 323 323 322 321 321 320 321 321 321 321 320 319 318 318 318 319 318 318 318 317 317 317 317 316 315 315 314 314 313 313 313 312 312 311 311 310 309 308 307 307
231 232 233 234 236 237 239 239 239 240 240 243 247 252 257 261 264 268 271 274 276 277 278 280 281 283 284 286 287 288 288 288 288 288 290 293 295 297 300 302 305 308 312 317 324 329 331 330 327 324 322 322 324 326 328 327 327 326 326 326 325 324 323 323 322 321 320 320 320 321 321 321 321 320 319 319 319 320 320 320 320 320 320 320 320 320 319 318 318 317 316 316 316 315 314 314 314 313 313 311 310 309 309
228 229 231 232 234 236 238 239 240 241 242 245 249 253 257 261 265 268 271 274 277 278 280 282 283 285 288 290 290 289 288 287 287 289 291 293 296 299 300 302 305 308 312 318 324 330 332 331 327 324 324 325 326 327 327 327 327 327 327 326 325 324 323 323 322 321 319 319 321 321 321 320 320 320 320 320 321 322 323 323 322 322 322 322 323 322 321 320 320 319 319 318 318 317 317 316 316 316 315 314 313 312 312
228 229 231 233 234 235 238 239 241 243 245 248 251 254 259 261 265 267 270 273 276 278 281 283 285 287 290 291 290 288 287 288 289 291 292 295 297 298 300 302 304 308 312 316 323 328 330 328 324 322 322 324 325 326 326 326 326 326 326 325 324 323 323 322 321 320 320 321 322 322 321 321 321 321 322 322 323 324 324 325 324 324 324 324 324 324 323 322 321 321 321 320 320 320 319 319 319 318 317 316 316 315 314
228 230 232 233 234 236 238 242 244 246 248 251 253 256 259 262 265 267 269 272 275 278 281 283 285 287 288 288 288 287 288 290 292 294 296 298 299 300 302 303 305 308 311 316 321 325 327 324 321 319 319 321 323 324 323 323 323 324 324 324 323 323 323 322 322 321 322 323 323 322 322 322 323 324 324 325 325 326 327 327 327 327 327 327 326 325 324 324 323 322 322 322 322 321 321 321 321 320 319 318 318 317 316
229 232 233 234 235 237 240 243 246 248 250 253 255 258 260 262 265 267 269 272 274 277 280 283 283 284 284 284 285 287 290 293 295 298 300 302 304 305 306 307 309 311 314 317 320 324 323 321 318 317 318 319 321 321 320 320 321 322 323 323 323 323 323 323 322 322 324 324 325 324 323 324 325 326 326 327 327 328 328 328 328 328 328 328 327 326 326 325 325 324 324 324 324 323 323 323 322 321 321 320 319 318 317
230 232 234 235 236 238 241 244 247 249 252 254 256 258 260 262 265 267 269 270 273 276 278 279 280 281 281 282 284 287 292 295 298 301 305 307 309 310 312 313 315 316 317 319 321 322 322 319 317 316 317 319 320 320 319 320 320 321 322 323 323 324 324 323 323 324 326 326 325 325 324 326 327 328 327 328 328 329 330 330 329 329 329 329 328 327 327 326 326 326 325 325 325 325 324 324 323 322 321 320 319 318 317
230 233 235 236 237 239 241 243 246 248 250 252 255 257 259 260 262 265 267 269 270 272 273 276 277 278 280 282 285 288 293 297 301 305 308 312 314 316 317 318 318 319 320 320 321 321 321 318 316 317 318 320 320 320 320 320 321 322 323 324 324 325 324 324 325 326 327 327 326 325 326 327 328 329 328 329 329 330 330 330 330 330 329 329 328 328 327 327 326 326 326 326 325 325 324 324 323 322 321 320 319 318 317
230 233 236 237 238 239 240 242 245 247 249 252 254 256 257 259 260 262 265 267 268 270 270 272 275 277 280 283 285 290 294 299 304 308 313 315 318 320 319 320 320 320 319 320 321 321 320 318 317 317 319 321 321 321 321 321 322 323 324 325 325 326 326 326 326 327 328 327 326 326 327 328 329 329 328 329 330 330 330 331 330 330 329 329 328 328 327 327 326 326 326 325 325 325 324 323 323 321 320 319 319 318 317
231 233 235 236 237 238 239 240 243 245 248 250 253 254 256 256 258 260 263 266 267 268 270 271 273 276 280 284 287 293 298 303 308 313 317 320 321 322 321 321 320 320 319 320 320 321 320 319 318 319 321 322 323 322 322 323 324 325 326 326 327 327 327 327 328 328 328 328 328 328 328 329 329 329 328 329 330 330 331 330 330 330 329 328 328 327 327 326 326 326 325 325 324 324 323 322 321 320 320 319 318 318 318
230 231 232 232 234 235 237 239 241 244 246 249 250 251 252 253 254 257 260 262 265 268 270 271 273 277 281 287 292 298 304 310 315 319 322 322 322 322 321 321 320 320 320 321 321 321 321 320 320 322 323 324 324 323 324 325 326 327 327 328 328 327 327 328 329 329 329 329 329 329 328 328 328 329 329 329 329 330 330 330 330 329 329 328 327 326 326 326 325 325 324 324 323 323 322 321 321 320 320 319 319 319 318
228 229 230 230 230 232 234 237 239 241 243 245 247 247 248 248 249 251 254 258 263 267 270 273 276 279 284 291 298 305 310 315 318 322 323 323 323 322 321 321 320 320 321 322 322 322 321 321 322 324 325 325 325 325 325 327 328 329 329 329 329 329 328 328 329 329 329 329 329 328 328 328 328 328 328 329 329 330 330 329 329 328 328 327 326 326 325 324 324 324 323 323 322 322 322 321 321 321 320 320 320 320 320
225 227 229 229 229 230 232 235 236 238 237 238 238 239 240 240 241 243 247 252 258 263 270 275 280 285 290 297 303 308 314 319 320 322 323 322 323 322 321 321 321 321 322 323 323 323 322 323 324 326 326 326 326 326 327 329 329 330 331 330 330 329 328 328 329 329 329 329 328 328 328 328 328 328 328 328 329 329 329 329 328 327 327 326 325 325 324 323 323 323 323 323 322 322 323 323 323 323 323 324 324 324 324
223 225 227 228 229 229 231 233 234 234 233 231 229 229 229 229 229 232 236 242 249 258 266 275 282 288 295 300 307 311 315 318 321 322 322 322 322 322 322 322 323 323 323 324 323 323 322 323 325 327 328 327 327 327 329 330 331 331 331 331 330 329 329 329 329 329 329 329 329 328 327 327 327 327 327 328 328 328 328 328 327 326 326 325 324 324 323 323 323 323 323 324 324 324 325 326 326 327 328 328 329 329 329
222 224 226 227 227 228 230 231 232 232 229 225 222 219 218 217 218 220 224 230 238 249 261 271 282 288 296 303 309 313 316 319 321 322 323 324 324 324 324 324 325 325 325 325 324 323 323 324 326 328 329 329 328 329 330 331 332 332 332 331 330 329 329 328 329 329 329 329 328 328 327 326 326 326 326 327 327 327 327 326 326 325 325 324 324 323 323 323 324 324 325 326 327 328 329 330 331 332 332 333 333 333 333
221 223 225 225 226 227 228 229 230 229 226 222 217 213 211 210 210 213 217 221 229 240 254 267 279 287 296 304 309 314 318 320 322 323 324 325 326 326 326 326 326 326 326 326 325 324 323 324 326 329 330 330 329 330 331 332 332 332 332 330 330 329 328 328 328 329 329 328 328 327 326 326 325 326 326 326 327 327 326 325 325 324 324 324 323 324 324 325 325 326 328 329 331 332 333 334 335 335 336 336 335 335 334
220 222 223 224 225 225 226 226 227 226 224 221 217 213 208 207 208 210 213 218 225 238 250 264 276 286 295 303 309 314 317 320 321 324 325 326 327 326 328 328 328 327 326 326 325 325 324 325 327 329 331 330 330 330 331 332 332 332 331 330 329 328 328 328 328 328 328 327 327 326 325 325 325 325 325 326 326 326 325 325 324 324 324 324 324 325 326 327 328 330 331 333 334 335 336 337 337 337 337 336 336 335 334
218 220 222 223 224 224 224 223 224 223 221 220 217 213 210 209 210 211 213 218 225 236 248 263 275 285 293 301 307 311 315 317 320 322 324 325 326 328 329 329 329 327 326 325 325 325 324 326 328 330 331 330 329 330 331 331 331 331 330 329 328 327 328 328 327 327 327 326 326 325 325 324 324 325 325 325 325 325 325 324 325 325 325 326 326 327 329 330 331 333 334 336 336 337 338 338 337 337 336 336 335 334 333
216 218 220 222 223 223 223 221 221 220 219 218 216 214 213 212 212 213 215 220 224 233 247 260 272 285 293 301 305 309 312 314 317 320 322 325 327 328 330 329 328 326 325 325 325 325 325 327 329 331 331 330 329 329 330 330 330 330 328 328 327 327 327 327 327 326 326 325 325 324 324 324 324 324 324 324 324 325 325 325 326 327 327 328 329 330 331 332 334 335 336 337 338 337 337 337 336 336 335 335 334 334 333
214 215 216 219 221 223 222 221 220 219 218 217 217 216 216 216 217 219 220 221 227 234 247 261 276 289 299 303 306 308 310 312 316 319 322 326 328 329 329 329 327 324 323 324 325 326 326 327 329 331 331 330 329 329 329 329 329 328 328 327 327 327 327 326 326 326 324 324 323 323 323 323 324 324 324 324 325 325 326 327 327 328 329 330 330 332 333 334 335 336 337 337 337 337 336 336 335 335 334 334 334 333 333
212 212 213 215 219 221 222 220 220 219 219 218 217 219 221 222 225 227 231 232 236 242 253 265 278 290 298 301 303 306 308 313 317 321 324 326 328 328 327 326 324 323 323 325 327 327 327 328 329 330 331 330 330 329 329 329 328 328 327 327 327 327 327 326 325 324 324 323 322 322 322 322 323 323 324 325 326 326 327 328 329 330 330 331 331 332 333 334 335 335 336 336 335 335 334 334 334 333 333 333 333 333 333
210 209 210 212 216 219 220 221 221 220 221 220 220 222 225 229 233 240 246 249 252 257 262 268 276 283 288 291 297 301 307 313 318 321 324 325 324 323 323 323 323 323 325 326 327 328 328 328 329 330 331 330 329 329 329 329 328 328 328 328 327 327 327 326 325 324 323 322 321 321 321 322 323 323 324 325 326 327 328 329 329 330 330 331 331 331 332 333 333 333 334 333 333 333 332 332 332 332 332 332 332 332 332
208 207 208 210 212 216 219 221 223 223 223 223 225 227 232 236 244 252 258 263 265 266 267 268 270 273 277 284 291 300 307 313 317 318 319 320 320 320 321 322 324 325 326 327 328 329 329 328 329 330 331 330 329 328 329 329 329 328 328 328 328 327 327 326 325 323 322 321 321 321 322 322 323 323 325 326 327 327 328 328 329 329 329 330 330 330 330 330 331 331 331 331 331 330 330 330 330 331 331 331 331 331 330
206 206 206 206 209 213 217 220 223 225 226 228 233 238 243 246 252 259 265 268 271 274 275 275 275 277 280 286 293 301 307 310 311 312 313 314 316 317 319 322 324 325 326 327 328 329 330 329 330 330 330 330 329 328 329 329 329 329 329 328 328 328 327 326 324 323 322 321 321 321 322 322 323 324 325 326 326 327 328 328 328 328 328 328 328 328 327 327 327 328 328 328 328 328 328 328 328 328 329 329 329 329 329
205 205 205 205 207 209 214 218 222 226 229 234 244 251 256 258 260 266 273 277 282 285 288 289 290 290 289 290 292 296 299 300 302 304 308 311 314 317 319 321 324 326 327 328 329 330 331 330 330 330 330 329 329 328 328 329 329 329 329 328 328 327 327 325 324 323 321 321 321 321 322 323 323 324 324 325 326 327 328 328 328 328 327 327 326 325 324 324 324 324 324 324 325 325 325 325 325 326 326 326 326 326 326
204 204 204 205 205 206 209 213 218 223 229 238 249 260 267 271 275 279 283 287 290 291 291 291 291 291 290 288 287 287 288 289 295 301 307 312 315 317 319 321 323 326 327 329 330 331 331 330 330 329 330 329 329 327 328 329 329 329 329 328 328 327 325 324 323 321 321 320 320 321 321 322 323 323 325 325 327 327 328 328 328 327 326 325 323 323 322 321 321 321 321 321 321 322 322 322 322 322 323 323 323 323 323
204 205 205 205 206 205 205 207 211 217 225 236 248 261 272 280 283 285 286 287 288 286 285 285 284 284 284 284 283 282 284 289 298 305 310 314 316 317 319 321 323 325 327 329 330 331 331 330 329 329 329 329 328 328 328 329 329 329 328 327 326 326 324 323 322 321 320 320 320 320 321 323 324 324 325 325 326 326 326 326 326 325 323 322 321 320 319 318 318 318 318 318 318 318 319 319 319 320 320 320 320 320 320
203 205 206 207 208 207 204 203 206 212 220 231 244 260 273 281 283 282 281 280 278 278 277 277 276 276 277 280 282 285 289 296 303 310 313 314 315 316 317 318 320 324 326 329 330 331 332 330 329 329 328 328 328 328 327 328 328 327 327 325 324 324 322 321 320 320 320 320 321 322 323 323 324 324 324 325 325 324 323 322 321 320 319 318 317 316 316 315 315 315 315 315 315 315 316 316 316 317 317 317 318 318 318
203 204 207 209 211 211 208 204 204 209 218 230 244 256 268 273 275 274 273 272 271 271 272 273 273 273 275 279 284 289 295 300 305 310 313 313 313 314 314 316 318 320 324 327 329 330 331 331 329 328 328 328 328 327 326 326 326 326 325 323 322 321 321 320 320 320 320 321 321 323 324 324 324 325 324 324 322 321 319 318 317 316 315 314 314 313 313 313 313 313 313 313 313 313 313 314 314 315 315 315 315 316 316
204 205 208 211 214 217 216 211 208 212 222 234 245 252 259 263 265 266 266 265 264 265 267 270 273 275 278 282 287 292 297 301 304 307 310 310 311 311 312 312 314 317 321 324 326 328 330 330 329 327 327 327 327 326 326 325 324 323 323 322 321 320 320 320 320 321 321 321 322 323 324 324 324 324 324 322 321 318 317 315 314 313 312 311 311 311 310 311 310 310 311 311 311 311 312 312 313 313 313 314 314 314 314
208 209 211 213 218 224 228 226 222 224 232 240 246 249 251 254 257 259 260 259 259 261 265 270 275 279 283 287 290 293 296 299 302 304 307 308 309 309 310 310 311 314 317 320 322 324 327 328 327 327 326 326 326 326 325 324 322 322 321 320 320 319 319 320 320 321 321 322 322 323 323 323 323 323 322 321 319 317 315 314 313 311 310 310 309 309 309 309 309 309 309 309 310 310 310 311 311 312 312 312 312 313 313
212 213 215 217 221 228 236 241 241 240 241 244 245 247 247 249 251 254 255 256 257 261 265 272 277 283 286 288 291 292 294 296 299 302 305 305 307 307 307 307 308 310 312 315 317 321 323 325 326 326 325 324 324 324 324 323 322 321 320 319 319 319 319 319 320 321 321 322 322 322 321 321 321 320 320 319 317 316 315 314 312 311 310 309 309 308 308 308 308 308 308 308 308 309 309 310 310 311 311 311 311 311 311
211 214 217 218 222 227 235 243 247 247 246 245 245 247 247 248 250 251 254 256 259 263 268 273 278 282 286 288 289 290 292 294 297 299 301 303 304 304 304 304 304 306 308 310 313 316 319 321 323 323 323 323 323 323 323 322 321 320 319 318 318 318 318 319 319 320 320 321 320 320 319 319 318 317 317 316 315 315 314 313 311 310 309 308 308 307 307 307 307 307 307 307 307 308 308 309 309 310 310 310 310 310 310
206 209 213 216 219 224 229 236 242 244 245 246 247 248 249 250 251 253 256 260 263 266 270 274 277 280 283 286 288 289 291 293 295 297 299 300 301 301 301 301 302 303 304 306 308 312 314 316 318 319 320 320 321 321 321 321 320 319 318 317 317 317 317 317 318 318 319 319 319 318 317 316 315 314 314 313 312 312 312 311 310 309 308 307 307 306 306 306 306 306 306 306 307 307 308 308 308 308 309 309 309 309 309
201 203 206 210 214 219 224 230 236 241 243 246 248 250 252 253 255 257 260 264 267 269 271 273 275 277 280 283 286 288 290 291 293 295 297 298 298 299 298 298 299 299 301 302 305 307 309 312 314 316 317 317 318 318 319 319 319 318 317 316 316 315 315 315 316 316 316 316 316 315 314 314 313 312 311 310 310 309 308 308 307 307 306 306 306 305 305 305 305 305 305 305 306 306 307 307 307 307 307 307 307 307 307
196 198 201 204 209 215 220 226 231 236 241 245 249 251 254 258 260 262 265 268 270 272 273 274 275 276 279 281 284 287 288 290 291 293 294 295 296 296 296 296 296 297 298 300 302 304 305 308 310 312 313 314 315 316 316 317 317 316 315 315 314 314 314 314 313 313 313 313 313 312 312 311 310 309 308 307 307 306 306 305 305 305 304 304 304 304 304 304 304 304 304 305 305 305 306 306 306 306 306 306 306 306 306
192 194 196 200 205 211 216 221 227 233 238 243 248 252 256 260 264 268 270 272 274 275 275 276 278 278 280 282 284 286 288 289 290 291 292 292 294 294 294 295 295 296 297 298 300 301 303 304 306 308 309 310 312 313 314 314 314 314 313 313 313 313 312 312 311 311 310 310 310 309 308 308 307 306 305 305 304 304 303 303 303 303 303 303 303 303 303 303 303 303 304 304 304 305 305 305 305 305 305 305 305 305 305
188 191 193 198 202 208 212 217 222 229 235 242 247 252 257 262 267 271 273 275 276 277 277 278 280 282 283 284 285 286 287 288 289 289 290 291 292 292 293 294 294 296 296 297 298 299 300 301 303 304 305 307 309 310 310 310 310 311 311 311 311 311 311 311 310 309 309 308 307 306 305 305 304 303 303 302 302 302 301 301 301 301 301 301 301 302 302 302 303 303 303 304 304 304 305 305 305 305 304 304 304 304 303
185 187 190 194 199 204 209 214 219 226 233 241 247 253 258 263 267 271 273 275 276 277 277 279 280 283 284 286 286 285 286 287 287 287 288 289 289 290 292 293 294 295 295 296 296 297 298 299 299 300 302 303 305 305 306 306 307 307 308 309 310 310 310 310 309 308 308 307 306 304 303 303 302 301 301 301 300 300 300 300 300 300 300 300 301 301 301 302 302 303 303 303 303 304 304 304 304 304 303 303 303 303 302
184 185 187 190 196 201 207 212 218 225 232 239 246 253 257 261 264 267 270 272 273 275 276 277 279 281 283 285 285 284 284 284 284 284 285 287 288 289 291 293 293 294 294 294 295 295 296 296 297 298 299 300 301 302 302 303 303 305 306 307 308 308 308 308 308 307 306 305 304 303 302 301 300 300 299 299 299 299 299 299 299 299 299 300 300 300 301 301 302 302 302 303 303 303 303 303 303 303 302 302 302 302 302
186 186 186 189 193 199 205 211 218 223 230 237 244 250 255 258 261 264 266 268 269 271 273 275 277 279 281 282 283 282 282 282 283 283 284 285 287 289 290 292 293 294 293 293 293 293 294 294 295 296 297 297 298 298 299 300 301 302 304 305 306 307 307 307 306 306 305 304 303 302 301 300 299 299 298 298 298 297 297 298 298 298 299 299 299 300 300 301 301 301 302 302 302 302 302 302 302 302 301 301 301 301 301
192 191 192 192 195 200 207 214 220 225 230 236 241 246 251 255 258 260 262 264 264 266 269 271 273 274 276 278 279 279 280 281 283 284 285 286 287 288 290 291 292 293 293 293 292 292 292 292 293 294 294 295 295 296 296 297 299 300 302 303 304 305 305 305 305 304 304 303 302 301 301 300 299 298 298 297 297 297 297 297 297 297 298 298 299 299 300 300 300 300 301 301 301 301 301 301 301 300 300 300 300 300 300
203 202 203 203 204 208 212 219 225 231 234 238 242 246 251 254 256 258 259 260 261 261 263 266 269 270 270 271 273 276 278 279 282 283 285 286 287 288 289 290 291 292 293 292 292 291 291 291 292 292 293 293 293 294 295 296 297 299 300 301 302 303 303 303 303 303 302 302 301 301 301 300 300 299 298 298 297 297 296 296 297 297 297 298 298 298 298 299 299 299 299 299 300 300 300 300 299 299 299 299 299 299 299
220 218 217 216 217 219 222 228 234 238 241 244 247 249 251 255 257 258 258 258 257 258 259 261 264 266 267 268 269 271 275 277 279 281 283 285 286 288 289 290 291 291 292 292 291 291 291 291 291 292 292 292 292 292 293 295 296 297 298 299 300 301 301 301 301 301 301 301 301 301 301 300 300 299 298 298 297 297 296 296 296 296 296 297 297 297 297 297 297 298 298 298 298 298 298 298 298 298 298 298 298 298 298
236 231 230 228 228 229 232 236 241 245 248 250 252 254 255 258 259 259 258 258 256 256 256 258 260 263 265 267 268 269 272 275 277 279 281 283 285 287 289 291 292 292 291 291 290 291 290 291 291 291 291 291 291 292 292 294 295 296 297 298 298 299 299 299 299 299 299 299 300 300 299 299 298 297 297 296 296 296 295 295 295 295 295 295 295 295 296 296 296 297 297 298 298 298 298 298 297 297 297 297 297 297 296
248 243 240 237 236 237 239 242 246 250 253 255 257 259 261 262 261 260 258 258 257 256 256 256 258 260 263 266 268 269 271 273 274 276 279 282 285 287 289 291 292 292 291 290 290 290 290 290 290 290 290 290 290 291 292 293 293 295 295 296 297 297 298 297 297 298 298 298 298 298 297 296 295 295 294 294 294 294 294 294 294 294 294 294 294 294 295 295 296 296 297 297 297 297 297 297 297 296 296 296 296 296 296
255 251 247 244 242 242 243 246 249 253 257 259 261 263 265 265 264 261 259 258 257 256 256 256 257 259 261 265 268 270 272 274 275 277 280 282 285 288 290 290 291 291 291 291 290 290 290 290 289 289 289 289 290 290 291 292 292 294 295 295 296 297 297 297 297 297 298 297 297 296 295 294 294 293 293 293 292 292 292 292 292 292 292 293 293 294 294 295 295 296 297 297 297 297 297 297 296 296 296 296 297 297 298
256 255 252 249 247 246 246 249 252 256 260 263 265 268 269 269 266 263 260 258 257 257 256 255 256 259 260 264 268 272 275 277 279 281 283 284 286 288 289 290 291 291 291 291 290 289 288 288 288 288 288 288 288 289 290 291 292 293 294 295 296 296 296 296 297 297 297 297 296 296 295 295 294 293 293 293 292 292 292 292 292 292 292 292 292 293 293 294 295 296 297 297 297 297 297 297 297 297 298 298 299 299 299
253 255 254 252 250 249 249 251 255 260 264 267 269 271 272 272 269 265 261 258 257 258 257 255 256 258 261 263 268 273 277 281 283 284 286 288 288 287 288 288 289 289 291 292 291 290 289 288 288 287 287 287 288 288 289 290 291 292 293 294 295 295 295 296 296 297 297 297 297 296 296 296 295 294 294 293 293 293 292 292 292 292 292 292 292 292 293 294 295 297 298 298 298 297 297 296 297 297 298 299 299 299 299
250 253 254 253 253 252 253 255 259 264 268 270 272 274 276 275 272 267 263 259 258 257 258 257 257 258 261 263 268 274 279 283 285 287 288 289 290 290 289 289 290 290 289 291 291 290 290 291 290 289 288 288 288 288 289 290 291 292 293 293 294 294 295 296 296 297 297 297 297 297 297 296 296 295 295 294 294 294 293 293 293 292 292 292 291 291 292 294 296 298 299 298 298 297 295 294 294 294 294 295 295 296 296
250 250 252 253 254 255 256 258 262 268 272 274 276 278 279 278 276 270 265 260 258 257 257 257 257 258 263 266 270 275 281 284 287 289 291 291 292 293 293 292 291 290 289 288 289 289 289 290 291 291 290 289 290 290 291 291 292 293 293 293 294 294 295 295 296 296 296 296 296 296 296 296 295 295 295 295 295 294 294 294 293 293 292 291 291 290 290 292 294 296 297 297 297 296 295 293 292 290 289 288 288 289 290
253 250 251 253 254 256 257 259 264 269 274 276 278 279 281 281 278 274 268 263 259 258 257 257 257 258 261 267 272 278 284 287 289 292 294 295 295 294 294 293 291 290 289 288 288 288 289 288 288 289 290 290 290 291 292 292 292 293 293 293 293 294 294 295 295 295 295 296 296 296 295 295 294 294 294 294 294 294 294 293 293 292 292 291 290 289 288 288 288 288 289 291 292 293 292 291 290 288 286 284 283 284 285
257 253 252 252 254 256 257 260 264 269 274 277 279 280 282 282 281 277 271 265 261 259 258 257 257 257 259 265 271 278 284 289 292 294 297 299 298 296 294 293 294 294 293 292 290 289 288 287 287 287 287 288 290 290 290 291 291 292 292 293 293 293 294 294 294 294 294 294 294 294 294 294 293 293 292 292 292 292 292 292 291 291 291 290 289 288 287 286 285 284 283 283 284 285 285 286 286 286 285 284 284 284 284
261 258 254 253 254 255 257 259 263 268 273 277 279 280 282 283 282 278 272 267 262 260 259 258 258 258 259 262 268 275 282 289 294 297 298 300 299 297 296 294 293 293 294 294 293 292 290 288 287 287 285 286 287 288 289 289 290 290 291 292 292 292 292 293 293 293 293 293 293 293 292 292 292 291 291 290 290 290 289 289 289 289 288 288 288 288 288 288 288 286 285 284 283 283 284 284 285 286 287 288 288 287 287
264 261 258 254 253 254 256 258 261 265 272 276 279 281 283 283 281 277 272 267 263 261 259 258 258 258 259 261 265 272 280 288 295 300 300 299 298 297 297 296 293 291 291 290 291 291 290 288 287 286 284 283 283 285 287 288 289 289 290 290 290 291 291 291 291 292 292 292 291 291 291 291 290 290 290 289 289 288 287 287 287 287 287 287 288 289 290 290 291 291 290 289 289 288 288 288 289 290 290 290 290 289 288
265 262 259 256 254 254 255 256 259 264 270 276 279 281 282 281 279 276 271 266 262 260 258 256 255 256 258 261 265 271 279 287 294 299 301 300 298 297 296 296 295 294 293 290 288 288 288 289 288 285 284 283 282 282 284 287 289 289 289 288 288 288 289 289 289 290 290 290 290 290 290 290 290 290 289 289 288 287 287 286 286 286 287 288 289 291 292 293 293 294 294 294 293 293 293 292 292 292 291 291 290 289 289
264 263 260 257 255 253 253 254 257 262 269 275 278 280 280 279 278 275 270 265 260 257 254 253 253 254 257 262 268 274 282 288 292 296 298 300 300 298 297 297 296 295 294 293 291 289 288 288 287 286 286 285 284 282 281 284 286 287 287 287 287 286 287 287 288 288 289 290 290 291 292 292 292 291 290 290 289 288 288 288 288 289 290 291 293 294 295 295 295 295 295 294 294 294 293 293 292 292 291 291 291 290 290
264 262 260 258 254 253 252 254 257 262 268 273 276 278 277 277 276 274 269 264 259 255 252 250 251 253 257 263 270 277 283 288 292 294 295 296 297 298 297 297 296 295 294 293 291 290 289 289 288 288 288 288 287 285 283 283 283 284 284 285 286 286 287 288 288 289 290 292 294 295 296 296 295 294 292 292 291 291 291 291 292 293 294 295 296 296 296 296 295 295 295 294 294 293 293 293 293 292 292 292 292 292 291